Regional Weather Roundup
Issued by NWS Sterling, VA

Current Version |  Previous Version |  Text Only |  Print | Product List |  Glossary On
Versions: 1 2 3 4 5 6 7 8 9 10 11 12 13 14 15 16 17 18 19 20 21 22 23 24 25 26 27
257
ASUS41 KLWX 200210
RWRLWX

REGIONAL WEATHER ROUNDUP
NATIONAL WEATHER SERVICE BALTIMORE MD/WASHINGTON DC
1000 PM EDT SUN MAY 19 2024

Note: "FAIR" indicates few or no clouds below 12,000 feet
with no significant weather and/or obstructions to visibility.
 TC=TEMPERATURE CELSIUS

 * =Non NWS site. Station does not report precipitation (e.g. rain,
    snow, etc.), thunder, or fog.

DCZ001-MDZ009-015-VAZ040>042-051-053>054-200300-
WASHINGTON METRO

CITY           SKY/WX    TMP DP  RH WIND       PRES   REMARKS
WASHINGTON NAT PTCLDY    69  61  75 S5        30.00R
DULLES         PTCLDY    62  59  90 CALM      30.01R
QUANTICO       CLEAR     65  63  93 W6        30.01R
COLLEGE PARK*  MOCLDY    65  63  91 CALM      30.01R
LEESBURG*      CLEAR     63  61  94 CALM      30.02R
MANASSAS*      CLEAR     61  61 100 CALM      30.02R
GAITHERSBURG*  CLEAR     61  60  97 CALM      30.02R

$$

MDZ006>007-011-014-200300-
BALTIMORE METRO

CITY           SKY/WX    TMP DP  RH WIND       PRES   REMARKS
BWI AIRPORT    PTCLDY    66  62  87 SW3       29.99R
BALT INNER HAR   N/A     70  62  76 MISG      29.99R
MARTIN STATE   CLEAR     64  63  94 CALM      30.01R
ANNAPOLIS      PTCLDY    65  63  93 CALM      30.00R
FORT MEADE*    CLEAR     61  61 100 CALM      30.03R

$$

MDZ012-015-019>023-200300-
MARYLAND EASTERN SHORE

CITY           SKY/WX    TMP DP  RH WIND       PRES   REMARKS
OCEAN CITY     CLEAR     58  53  84 NE5       30.04R
SALISBURY      CLEAR     57  54  89 CALM      30.03R
BAY BRIDGE AP* CLEAR     64 N/A N/A CALM      30.00R
CAMBRIDGE*     CLOUDY    63  63 100 SE7       30.01R
EASTON*        CLEAR     64  59  82 SE8       30.01R

$$

MDZ017>025-200300-
SOUTHERN MARYLAND

CITY           SKY/WX    TMP DP  RH WIND       PRES   REMARKS
PATUXENT RIVER MOCLDY    66  60  81 E5        30.01R
ST INIGOES     PTCLDY    64  61  90 SE8       30.00R

$$

MDZ003>005-200300-
NORTH CENTRAL MARYLAND

CITY           SKY/WX    TMP DP  RH WIND       PRES   REMARKS
FREDERICK*     NOT AVBL
HAGERSTOWN APT CLEAR     68  59  73 SW5       30.01R
WESTMINSTER*   NOT AVBL

$$

MDZ501>502-200300-
WESTERN MARYLAND

CITY           SKY/WX    TMP DP  RH WIND       PRES   REMARKS
OAKLAND*       CLEAR     59  59 100 SE6       30.08R
CUMBERLAND*    CLEAR     62  60  92 CALM      30.07R

$$

VAZ025>031-200300-
SHENANDOAH VALLEY

CITY           SKY/WX    TMP DP  RH WIND       PRES   REMARKS
WINCHESTER*    CLEAR     59  57  94 CALM      30.02R
LURAY*           N/A     61  59  94 CALM      30.03R
NEW MARKET*    PTCLDY    64  63  96 N3        30.04R
STAUNTON*      CLOUDY    65  60  82 CALM      30.06R
WAYNESBORO*    CLOUDY    64  60  85 SE3       30.05R

$$

WVZ021-048>050-054>055-200300-
EASTERN WEST VIRGINIA PANHANDLE

CITY           SKY/WX    TMP DP  RH WIND       PRES   REMARKS
MARTINSBURG    CLEAR     60  58  92 SW3       30.00R
PETERSBURG*    NOT AVBL

$$

VAZ036>039-050-200300-
CENTRAL FOOTHILLS

CITY           SKY/WX    TMP DP  RH WIND       PRES   REMARKS
CHARLOTTESVILL MOCLDY    69  61  75 CALM      30.02R
CULPEPER*      CLEAR     60  59  96 CALM      30.03R FOG
ORANGE*        CLEAR     59  59 100 CALM      30.04R
GORDONSVILLE*  CLEAR     61  60  97 CALM      30.02R
WARRENTON*     CLEAR     58  55  91 CALM      30.02R FOG

$$

VAZ055>057-200300-
NORTH AND CENTRAL PIEDMONT

CITY           SKY/WX    TMP DP  RH WIND       PRES   REMARKS
FREDERICKSBRG* PTCLDY    62  62 100 CALM      30.00R

$$

NCZ024-NYZ072-PAZ021-071-VAZ022-071-200300-
OTHER REGIONAL OBSERVATIONS

CITY           SKY/WX    TMP DP  RH WIND       PRES   REMARKS
NEW YORK CITY  CLEAR     58  52  80 CALM      30.07R
PHILADELPHIA   PTCLDY    65  59  81 SE5       30.02R
PITTSBURGH     PTCLDY    73  52  47 CALM      29.99R
ROANOKE        MOCLDY    69  59  70 SE6       30.05R
RICHMOND       CLEAR     63  59  87 CALM      30.00R
RALEIGH        PTCLDY    65  60  84 NE5       30.00R

$$

ANZ530>537-200300-
MARINE OBSERVATIONS

STATION/POSITION TIME  TEMP    WIND        PRES
                       AIR SEA DIR/SP/G
                 (UTC) (F)     (DEG/KT/KT) (MB)
THOMAS PT LIGHT  0200   68     120/  5/  5 1016.9R
TOLCHESTER       0130          100/  2/  3 1015.5R
GOOSES REEF      0142   63 66   80/  4/  4   N/A
COVE POINT       0130          330/  1/  2 1015.9R
BALT HARBOR      0130      67   CALM  /  1   N/A
BALT KEY BRIDGE  0130          190/  4/  4   N/A
ANNAPOLIS USNA   0130      72  120/  1/  2 1015.3R
ANNAPOLIS CBIBS  0148   64 67  210/  2/  4   N/A
WASH DC CHANNEL  0130      68   CALM  /  2 1015.6R
DAHLGREN         0130      68   CALM  /  1 1014.9R
LEWISETTA        0130      69  110/  4/  5 1015.9R
SOLOMONS ISLAND  0130      67  130/  2/  3 1015.5R
PINEY POINT      0130          140/  3/  3   N/A
POTOMAC BUOY     0142   61 67  150/ 16/ 17   N/A
CAMBRIDGE PIER   0130      67  130/  6/  8 1016.5R
BISHOPS HEAD     0124      68  140/  9/ 11 1016.3
CHESAPEAKE CITY  0130      67  110/  4/  5 1015.8R

$$